Regional Weather Roundup
Issued by NWS

Home | Current Version | Previous Version | Text Only | Print | Product List | Glossary Off
Versions: 1 2 3 4 5 6 7 8 9 10 11 12 13 14 15 16 17 18 19 20 21 22 23 24 25 26 27 28 29 30 31 32 33 34 35 36 37 38 39 40 41 42 43 44 45 46 47 48 49 50

000
ASUS43 KDTX 012101
RWRMI
MICHIGAN HOURLY REGIONAL WEATHER ROUNDUP
NATIONAL WEATHER SERVICE DETROIT/PONTIAC MI
400 PM EST SUN MAR 01 2015

NOTE: "FAIR" INDICATES FEW OR NO CLOUDS BELOW 12,000 FEET WITH NO
SIGNIFICANT WEATHER AND/OR OBSTRUCTION TO VISIBILITY.

MIZ047>049-052>055-059>063-066>070-074>076-081>083-012200-
SOUTHEAST LOWER MICHIGAN

CITY           SKY/WX    TMP DP  RH WIND       PRES   REMARKS
ADRIAN         LGT SNOW  23  18  81 VRB5      30.26S WCI  17
ALMA           CLOUDY    25  17  69 W10       30.23F WCI  15
ANN ARBOR      PTSUNNY   24  17  74 W10       30.24F WCI  14
BAD AXE        PTSUNNY   24  15  67 W12       30.22S WCI  13
CARO           PTSUNNY   25  13  60 SW9       30.22F WCI  16
DETROIT CITY   LGT SNOW  26  18  71 W8        30.25S WCI  18
DETROIT        LGT SNOW  25  19  78 W6        30.26F WCI  18
FLINT          PTSUNNY   25  12  58 SW7       30.24F WCI  17
GROSSE ILE     LGT SNOW  25  19  80 SW6       30.25S WCI  18
HILLSDALE      PTSUNNY   24  19  78 W7        30.23R WCI  16
HOWELL         SUNNY     23  13  64 W8        30.23S WCI  14

CITY           SKY/WX    TMP DP  RH WIND       PRES   REMARKS
JACKSON        PTSUNNY   24  16  71 W8        30.24S WCI  15
LAMBERTVILLE   LGT SNOW  27  19  74 W6        30.27S WCI  20
LANSING        CLOUDY    25  14  63 SW8       30.25S WCI  16
LAPEER         FAIR      26  12  57 W7        30.22F WCI  18
MASON          SUNNY     24  14  65 W5        30.24S WCI  18
MONROE         CLOUDY    25  19  80 W5        30.25F HAZE    WCI  19
MT. CLEMENS    LGT SNOW  25  21  85 S7        30.21F FOG     WCI  17
PONTIAC        PTSUNNY   25  13  60 W7        30.21F WCI  17
PORT HOPE        N/A     23  13  65 SW8       30.20F WCI  14
PORT HURON     PTSUNNY   25  16  68 NW6       30.23F WCI  18
TRI CITIES     CLOUDY    26  16  65 SW10      30.23F WCI  16
TROY           PTSUNNY   28  19  69 SW6       30.25S WCI  22
SAGINAW HB     PTSUNNY   28  16  59 W14       30.23F WCI  17
$$
MIZ043>046-050>051-056>058-064>065-071>073-077>080-012200-
SOUTHWEST LOWER MICHIGAN

CITY           SKY/WX    TMP DP  RH WIND       PRES   REMARKS
BATTLE CREEK   CLOUDY    25  15  66 SW9       30.25S WCI  15
BENTON HARBOR  PTSUNNY   22  18  85 W13       30.29F WCI  10
BIG RAPIDS     LGT SNOW  24  19  81 SW7       30.19F WCI  16
COLDWATER      LGT SNOW  23  18  80 W7        30.25S WCI  15
FREMONT        CLOUDY    24  16  70 SW10      30.22F WCI  13
HOLLAND        CLOUDY    25  19  78 SW10      30.27F HAZE    WCI  15
GRAND RAPIDS   CLOUDY    24  17  74 W13       30.25F WCI  12
IONIA          CLOUDY    26  17  68 SW13      30.23F WCI  15
KALAMAZOO      CLOUDY    25  16  68 SW9       30.26S WCI  15
LUDINGTON      CLOUDY    23  17  76 SW10G21   30.22F WCI  12
MARSHALL       PTSUNNY   23  15  72 SW6       30.24S WCI  16
MOUNT PLEASANT CLOUDY    26  16  66 W5        30.21F WCI  20
MUSKEGON       CLOUDY    25  18  74 SW10      30.25F WCI  15
SOUTH HAVEN    CLOUDY    25  19  77 SW9       30.27F WCI  15
$$
MIZ016>042-012200-
NORTHERN LOWER MICHIGAN

CITY           SKY/WX    TMP DP  RH WIND       PRES   REMARKS
ALPENA         PTSUNNY   27  12  53 SW9G20    30.15F WCI  18
BEAVER ISLAND  PTSUNNY   24  16  73 SW17      30.13F WCI  10
BELLAIRE       CLOUDY    26  14  61 SW10G17   30.18S WCI  16
CADILLAC       FLURRIES  22  15  73 SW12      30.14F WCI  10
CHARLEVOIX     PTSUNNY   24  14  67 SW12G23   30.19F WCI  12
FRANKFORT      CLOUDY    24  17  76 SW9G17    30.19F WCI  14
GAYLORD        CLOUDY    23  13  65 W8        30.11F WCI  14
GRAYLING       MOSUNNY   25  12  58 W9        30.14F WCI  16
HARBOR SPRINGS CLOUDY    23  15  71 W7G17     30.15F WCI  14
HOUGHTON LAKE  PTSUNNY   24  12  60 SW9       30.15F WCI  14
MANISTEE       CLOUDY    25  12  58 SW10      30.21F WCI  15
OSCODA         PTSUNNY   27  13  56 SW14G21   30.17F WCI  16
PELLSTON       CLOUDY    23  12  62 SW16G23   30.15F WCI  10
ROGERS CITY    SUNNY     28  15  57 W10       30.15F WCI  19
TRAVERSE CITY  CLOUDY    26  14  60 SW14G20   30.17F WCI  14
$$
MIZ007>008-015-012200-
EASTERN UPPER MICHIGAN

CITY           SKY/WX    TMP DP  RH WIND       PRES   REMARKS
KINROSS        PTSUNNY   25  16  68 SW10G17   30.10F WCI  15
MACKINAC ISLAN PTSUNNY   23  15  73 SW14      30.13F WCI  10
NEWBERRY       CLOUDY    23  16  76 S16G23    30.07F WCI   9
S. S. MARIE    PTSUNNY   24  11  57 S17       30.08F WCI  11
MUNISING         N/A     28  11  48 SW9G20    30.06F WCI  19
$$
MIZ004>006-011>014-085-012200-
CENTRAL UPPER MICHIGAN

CITY           SKY/WX    TMP DP  RH WIND       PRES   REMARKS
MANISTIQUE     CLOUDY    25  16  69 SW12G21   30.09F WCI  14
ESCANABA       CLOUDY    25  18  74 S15       30.09F WCI  12
MENOMINEE      CLOUDY    27  12  54 W13G20    30.12S WCI  16
SAWYER-GWINN   PTSUNNY   25  12  58 W16G23    30.02F WCI  12
$$
MIZ001>003-009>011-084-012200-
WESTERN UPPER MICHIGAN

CITY           SKY/WX    TMP DP  RH WIND       PRES   REMARKS
IRON MOUNTAIN  CLOUDY    25  12  58 W12       30.04F WCI  14
HOUGHTON       CLOUDY    20  11  68 W21G30    30.02S HAZE    WCI   4
COPPER HARBOR    N/A     23  12  62 NW8G16    30.03F WCI  14
IRONWOOD       MOSUNNY   21   9  58 W15       30.03F WCI   8
$$

ABBREVIATIONS USED IN REMARKS
   TC - TEMPERATURE IN CELSIUS
  WCI - WIND CHILL INDEX
   HX - HEAT INDEX
  VSB - VISIBILITY



USA.gov is the U.S. government's official web portal to all federal, state and local government web resources and services.